Flag for Germany Past Weather in Buchholz in der Nordheide, Lower Saxony, Germany — Yesterday and Last 2 Weeks

Now
82 °F

Passing clouds.


Feels Like: 84 °F
Forecast: 66 / 84 °F
Wind: 6 mph from Southeast

Location: Hamburg-Finkenwerder

Current Time: Aug 24, 2016 at 8:18:31 PM

Latest Report: Aug 24, 2016 at 7:50 PM


Visibility: N/A

Pressure: 30.15 "Hg

Humidity: 55%

Dew Point: 64 °F

Location of Buchholz in der NordheideLocation

Past Weather in Buchholz in der Nordheide — Graph

°F

Buchholz in der Nordheide Temperature Yesterday

Maximum temperature yesterday: 75 °F (at 4:50 PM)
Minimum temperature yesterday: 63 °F (at 5:50 AM)
Average temperature yesterday: 68 °F

High & Low Weather Summary for the Past Weeks

 TemperatureHumidityPressure
High86 °F (Aug 24, 3:50 PM)100% (Aug 10, 5:50 AM)30.30 "Hg (Aug 10, 5:50 AM)
Low48 °F (Aug 11, 5:50 AM)44% (Aug 19, 4:20 PM)29.80 "Hg (Aug 19, 6:20 PM)
Average63 °F81%30.07 "Hg
* Reported Aug 9 6:20 PM — Aug 24 6:50 PM, Buchholz in der Nordheide, Weather by CustomWeather, © 2016

Note: Actual official high and low records may vary slightly from our data, if they occured in-between our weather recording intervals... More about our weather records

Advertising

Buchholz in der Nordheide Weather History for the Previous 24 Hours

Scroll right to see more
 ConditionsComfort  
Time TempWeatherWind HumidityBarometerVisibility
6:50 PM
Wed, Aug 24
84 °FPassing clouds.5 mph51%30.15 "HgN/A
6:20 PM86 °FPassing clouds.6 mph46%30.18 "HgN/A
5:50 PM86 °FPassing clouds.6 mph46%30.18 "HgN/A
5:20 PM86 °FPassing clouds.6 mph49%30.18 "HgN/A
4:50 PM86 °FPassing clouds.8 mph49%30.18 "HgN/A
4:20 PM86 °FPassing clouds.8 mph49%30.18 "HgN/A
3:50 PM86 °FPassing clouds.7 mph52%30.18 "HgN/A
3:20 PM84 °FPassing clouds.7 mph51%30.21 "HgN/A
2:50 PM84 °FPassing clouds.8 mph51%30.21 "HgN/A
2:20 PM82 °FPassing clouds.7 mph55%30.21 "HgN/A
1:50 PM82 °FPassing clouds.8 mph58%30.21 "HgN/A
1:20 PM81 °FPassing clouds.7 mph62%30.21 "HgN/A
12:50 PM81 °FPassing clouds.8 mph62%30.24 "HgN/A
12:20 PM79 °FPassing clouds.8 mph70%30.24 "HgN/A
11:50 AM77 °FPassing clouds.7 mph69%30.24 "HgN/A
11:20 AM75 °FPassing clouds.7 mph74%30.24 "HgN/A
10:50 AM73 °FPassing clouds.8 mph83%30.27 "HgN/A
10:20 AM72 °FPassing clouds.8 mph88%30.27 "HgN/A
9:50 AM70 °FPassing clouds.7 mph88%30.27 "HgN/A
9:20 AM68 °FPassing clouds.6 mph100%30.27 "HgN/A
8:50 AM66 °FPassing clouds.6 mph100%30.27 "HgN/A
8:20 AM64 °FPassing clouds.5 mph100%30.27 "HgN/A
7:50 AM63 °FSunny.5 mph100%30.27 "Hg10 mi
7:20 AM61 °FSunny.5 mph100%30.27 "Hg10 mi
6:50 AM61 °FClear.5 mph100%30.27 "Hg10 mi
6:20 AM61 °FClear.3 mph100%30.27 "Hg10 mi
5:50 AM61 °FClear.3 mph100%30.27 "Hg10 mi
5:20 AM61 °FClear.3 mph100%30.27 "Hg10 mi
Weather by CustomWeather, © 2016

See weather overviewHow to use our weather pages